GFSMA_sfc_rhum_000.txt.gz
RH
66 53 56 56 54 46 42 49 50 51 55 48 46 45 40 41 45 40 39 72 75 76 76 71 72 73 72 72 75 73 73 73 72 72 72 72 76 74 72 70 70 73 73
69 50 50 48 49 46 44 49 54 55 52 46 44 44 44 39 44 48 38 42 73 75 75 74 71 73 73 72 70 73 76 76 77 75 77 80 79 79 76 73 73 72 73
65 62 50 51 48 57 63 55 56 51 45 43 44 40 41 43 40 46 42 36 41 77 75 72 78 80 75 74 74 75 77 80 80 80 81 81 80 80 80 80 79 78 79
63 61 56 50 50 53 50 48 48 47 43 42 42 41 42 41 44 45 41 42 35 33 64 71 71 80 78 72 74 77 79 79 80 82 82 82 81 81 83 83 83 83 83
58 56 51 50 60 55 68 53 47 50 45 41 38 37 41 40 42 32 44 45 44 39 33 74 71 75 72 68 74 77 79 82 81 82 82 83 83 82 82 83 84 85 86
59 65 59 58 58 69 51 49 62 47 51 45 39 37 43 40 40 38 37 32 40 42 41 53 47 50 70 70 74 77 79 80 81 81 82 82 84 84 84 85 85 86 86
60 63 52 60 59 59 56 58 52 54 42 44 43 36 42 44 42 38 33 29 34 33 41 47 47 47 55 73 80 79 77 75 79 81 83 83 84 85 86 87 88 88 88
63 60 64 60 63 46 62 59 60 46 42 44 47 44 38 44 42 34 34 29 33 28 34 42 49 57 52 52 64 80 82 82 80 79 80 84 84 84 85 87 89 90 89
64 67 66 58 62 54 38 56 55 58 42 52 60 48 40 38 37 38 43 32 35 30 33 37 43 46 49 43 48 57 74 77 76 77 78 79 84 85 85 85 86 88 89
61 63 65 64 60 43 55 53 50 54 60 47 43 48 58 58 41 38 35 34 33 31 38 30 32 38 42 34 50 70 70 69 68 67 67 71 75 79 80 83 86 87 88
64 56 66 61 59 48 59 60 59 63 48 47 42 44 53 42 52 42 38 34 33 33 33 32 32 30 36 37 32 53 64 67 68 66 66 65 66 68 72 77 80 82 85
52 63 64 62 57 51 59 55 60 61 60 56 46 52 40 39 38 39 37 40 40 36 33 34 35 30 31 33 36 56 55 66 69 68 68 69 68 67 68 68 72 77 78
43 58 70 65 51 60 56 56 61 57 58 53 61 44 41 41 39 39 40 39 39 36 36 36 36 34 32 34 36 56 62 71 75 79 78 74 71 69 68 67 69 72 76
40 49 66 58 56 54 55 56 47 46 51 50 58 59 44 40 38 40 41 45 45 38 35 48 38 34 35 35 45 67 47 70 71 76 80 82 80 75 72 70 70 70 71
40 53 59 58 52 55 54 57 45 52 51 53 51 55 50 37 34 37 40 46 47 46 38 35 35 37 38 36 46 46 49 63 73 77 80 82 81 81 78 76 78 79 78
59 56 57 52 53 54 55 61 50 52 56 42 38 50 55 40 39 38 39 39 40 44 48 35 34 38 41 42 48 50 49 70 70 77 82 81 82 82 82 80 80 80 81
64 61 61 55 54 55 56 61 60 51 52 55 52 55 60 61 44 36 35 37 39 41 46 40 37 41 52 55 51 51 48 49 43 75 79 82 83 82 80 79 80 81 81
66 70 61 65 59 53 55 59 57 47 50 52 52 57 56 44 56 58 44 57 48 51 51 67 55 46 54 51 53 59 50 39 41 53 76 77 77 78 79 81 83 83 84
78 74 74 76 74 67 57 58 59 56 52 51 52 55 54 54 59 49 53 46 41 43 48 46 53 42 42 41 49 64 55 51 40 56 69 71 74 77 80 83 84 85 87
72 85 81 80 68 61 58 57 55 56 53 50 54 56 58 57 60 58 54 61 57 53 54 47 51 42 48 55 52 54 48 34 35 32 47 55 59 59 74 78 80 80 85
77 74 71 67 66 64 57 62 56 53 56 57 56 55 56 61 69 68 48 56 62 53 51 47 48 41 50 54 58 41 42 40 53 40 36 34 32 35 38 51 52 65 80
68 68 66 68 66 58 65 75 64 53 56 60 60 62 67 75 77 88 88 87 79 70 67 50 49 50 68 73 53 46 49 51 53 40 48 41 42 42 39 36 52 67 72
73 63 62 65 67 66 80 81 83 53 54 65 68 73 72 69 82 63 80 88 87 88 87 74 75 70 81 66 66 83 69 62 56 45 57 55 43 43 38 32 56 74 81
67 65 68 68 65 58 85 92 89 64 71 66 67 69 82 86 85 70 64 60 58 60 62 63 67 63 63 64 69 67 70 72 69 58 61 57 41 39 38 40 60 69 72
65 64 66 68 69 66 94 91 91 56 62 69 85 78 87 91 90 82 66 65 64 60 68 81 84 84 85 88 82 61 56 63 65 60 50 47 42 44 48 55 57 68 74
69 61 66 67 68 72 93 92 86 47 70 80 93 92 92 88 88 89 69 65 65 59 56 57 55 62 74 60 86 71 66 75 61 45 44 48 51 70 92 71 62 63 67

GFSMA_sfc_rhum_003.txt.gz
RH
64 61 52 45 50 56 61 48 49 48 50 51 43 43 39 37 34 32 34 73 73 74 75 73 74 75 74 73 77 76 75 73 72 73 74 70 72 73 76 72 70 70 75
84 49 68 66 68 58 64 43 56 53 58 52 40 42 42 38 41 42 33 46 74 73 72 74 73 75 77 73 74 76 76 76 74 74 74 77 78 78 75 73 71 71 73
54 61 60 54 46 56 59 63 72 69 50 33 38 37 37 38 36 43 38 32 46 77 70 69 76 77 76 75 74 76 79 81 79 79 81 82 82 81 81 80 77 77 78
60 61 52 49 64 50 64 53 80 60 38 35 37 36 37 38 42 42 37 38 33 30 70 74 70 80 76 74 78 78 79 81 82 82 82 81 82 82 82 83 82 83 82
59 57 51 59 63 57 54 50 56 55 39 38 35 33 37 38 39 32 39 39 43 39 33 75 73 71 72 70 73 76 79 83 83 82 82 83 84 83 83 84 85 85 85
58 58 50 57 56 74 49 83 63 45 46 44 35 33 39 39 39 36 34 29 39 38 39 47 54 56 72 71 74 76 77 80 83 83 83 84 84 85 85 85 85 85 86
60 64 56 63 57 58 70 53 49 51 41 41 42 37 40 42 40 36 30 29 32 31 39 43 46 53 72 73 79 82 80 75 78 81 84 85 86 86 87 88 88 88 88
62 61 68 51 54 53 58 57 58 48 38 44 46 40 43 47 46 45 33 30 33 28 35 42 48 56 64 65 71 77 79 79 78 76 79 84 86 87 88 88 90 90 89
57 61 62 63 64 54 34 56 52 55 44 48 57 48 41 62 50 51 44 34 36 32 34 39 42 44 48 46 64 65 71 71 69 69 74 77 80 82 82 87 89 89 89
58 58 64 57 63 47 59 50 47 57 58 46 40 44 53 55 45 48 57 39 34 32 38 33 30 38 40 34 59 65 65 65 64 63 62 62 64 68 73 78 83 87 89
53 48 53 60 61 45 56 58 56 64 52 47 40 38 52 40 48 40 38 41 33 34 34 33 33 30 34 37 34 57 62 64 63 62 63 63 63 62 62 65 70 76 81
49 54 51 62 60 48 53 53 58 59 60 58 48 50 42 37 37 37 37 41 39 36 33 34 36 35 31 31 38 53 56 60 66 64 64 66 65 63 62 61 62 64 68
39 62 59 70 56 58 53 56 62 59 57 54 60 46 64 66 50 40 40 40 53 46 36 37 36 38 34 35 36 51 61 68 73 74 74 70 69 66 63 61 62 63 65
40 53 58 59 60 52 54 58 48 48 56 51 58 65 45 45 51 40 65 70 74 54 41 57 49 43 34 36 45 62 45 73 75 75 75 76 78 73 70 67 66 67 67
40 46 54 62 60 54 56 60 49 58 54 54 57 63 53 39 35 34 37 65 68 61 56 41 34 43 36 38 45 42 47 62 76 77 80 81 80 80 78 77 77 77 77
56 58 58 59 58 58 61 67 56 60 60 48 41 58 60 42 40 37 39 39 38 42 45 37 36 41 42 38 43 45 46 68 79 80 82 82 81 80 81 80 79 79 79
66 64 68 63 59 58 58 64 62 54 64 64 62 58 61 64 46 38 35 36 38 40 45 45 41 46 67 61 54 56 46 51 43 72 80 83 84 81 79 78 79 80 80
68 68 68 67 57 59 70 64 58 51 54 54 54 62 59 45 72 72 46 69 60 57 50 72 60 50 60 61 61 63 49 37 41 50 81 83 82 79 80 81 80 80 81
73 62 66 68 63 61 61 61 60 58 54 50 50 57 57 60 71 56 65 55 51 60 53 46 50 52 48 56 54 58 68 63 54 55 66 74 78 79 80 79 80 80 84
74 67 66 65 63 59 58 56 57 58 58 53 54 56 57 65 73 76 71 76 67 68 57 47 46 50 48 58 48 45 52 56 51 36 46 51 58 62 77 79 78 79 82
72 66 65 62 58 51 46 58 56 57 62 59 55 52 58 66 79 84 72 77 83 69 50 49 50 48 52 45 60 50 52 47 57 40 39 38 39 38 39 51 60 74 79
68 63 63 60 60 43 65 76 65 55 62 60 70 61 77 71 65 90 89 93 96 93 86 70 56 56 72 68 71 74 70 50 51 42 50 46 42 43 42 42 55 68 71
70 66 64 64 61 59 79 81 80 55 66 62 72 71 62 48 70 61 84 95 94 95 89 76 82 79 82 71 73 76 71 64 60 48 57 54 48 48 45 37 63 75 71
72 66 66 63 61 57 86 86 87 73 70 60 60 62 66 69 72 86 75 86 84 69 76 68 73 74 68 64 70 68 74 75 61 51 58 60 50 48 44 40 60 73 66
72 70 69 76 68 67 87 91 84 72 78 69 62 61 72 75 88 91 86 84 77 74 63 79 80 78 78 80 76 58 54 48 49 49 49 50 43 42 41 44 47 62 74
70 58 61 75 71 71 93 93 86 75 71 49 74 74 91 79 94 90 75 69 73 67 57 53 61 67 78 72 84 73 56 67 50 50 41 42 41 43 59 57 54 60 80

GFSMA_sfc_rhum_006.txt.gz
RH
85 88 78 69 72 68 72 75 70 69 71 65 58 54 52 55 51 51 70 79 74 70 73 77 76 78 80 74 77 76 75 73 74 76 77 76 78 78 78 77 78 76 76
81 74 78 74 75 70 74 71 74 75 72 64 64 52 52 53 54 56 54 80 79 76 72 76 75 80 75 72 78 77 78 77 78 75 78 80 79 80 80 81 78 76 77
80 76 81 75 81 72 72 77 77 78 69 56 56 53 52 53 56 56 56 52 70 80 77 75 76 80 77 76 75 77 81 80 80 80 80 81 83 82 83 82 80 78 79
71 77 80 88 89 77 80 83 83 75 74 60 62 60 59 54 54 57 54 52 60 55 78 76 78 78 77 74 77 78 79 82 84 83 83 84 84 85 85 84 84 84 83
73 77 78 88 81 72 74 82 82 79 69 66 54 54 57 61 55 42 52 53 57 60 63 78 79 80 74 69 74 76 77 80 82 84 84 85 85 85 85 85 85 86 87
70 81 78 75 74 79 82 82 80 71 71 69 46 49 59 61 61 56 51 44 52 54 57 69 80 76 80 72 76 76 75 78 81 82 83 84 85 86 86 86 87 88 88
74 77 74 78 74 83 80 75 70 73 71 70 69 68 68 59 59 60 51 52 49 49 57 66 69 88 86 81 84 84 81 78 75 79 83 84 86 86 87 87 88 89 88
78 78 84 84 82 84 82 78 74 76 72 72 72 76 84 74 63 55 56 49 50 52 54 56 69 73 78 85 82 77 77 77 77 76 78 82 86 87 88 89 90 91 91
77 80 80 80 83 72 75 79 75 72 76 79 67 76 83 86 82 66 62 56 59 61 61 61 57 62 63 78 78 71 68 70 67 67 72 75 77 80 82 85 88 90 92
71 71 78 79 82 77 82 80 72 76 79 78 79 66 70 72 80 85 73 59 58 53 59 58 56 58 55 68 64 65 65 66 63 62 61 61 62 64 67 72 80 85 88
75 74 77 79 82 76 81 76 77 79 80 78 76 73 76 76 73 72 76 70 67 63 63 59 56 56 58 54 73 70 64 67 62 60 60 60 60 60 58 60 62 66 70
70 73 69 80 81 76 81 76 77 78 79 80 79 78 75 76 70 72 72 68 69 66 57 62 63 64 57 60 50 66 66 65 69 68 65 63 62 59 56 56 58 60 61
65 76 78 81 77 79 79 79 83 81 79 78 82 78 74 75 74 75 75 75 75 72 70 60 67 69 57 64 64 60 66 69 72 72 73 72 68 66 61 58 58 59 61
62 73 74 78 78 76 75 80 77 76 78 77 73 79 78 74 73 74 71 76 79 78 71 66 62 70 71 66 67 62 66 78 76 77 78 75 74 75 72 68 65 63 62
62 72 71 77 75 75 77 82 74 78 74 79 78 79 78 73 71 70 69 74 76 82 74 68 65 65 61 61 66 64 71 70 82 82 81 83 82 80 79 78 78 77 77
69 71 73 72 75 76 76 81 76 76 81 76 73 79 81 72 72 70 63 70 70 74 76 69 67 68 66 62 62 66 65 69 81 83 80 80 80 80 82 82 81 80 80
72 75 74 75 77 74 76 81 79 75 78 80 77 78 75 76 75 73 74 71 69 72 78 74 71 70 75 75 70 72 72 75 71 81 81 81 82 82 80 80 81 81 81
74 74 75 77 76 71 76 78 75 65 76 77 77 79 76 61 84 82 81 80 78 77 80 84 81 78 78 79 80 80 68 49 64 57 77 83 85 86 84 82 81 81 83
76 74 75 79 76 71 76 75 75 74 73 72 73 77 76 78 82 85 86 87 86 83 88 89 83 76 76 73 75 77 76 75 67 66 69 75 79 81 84 84 82 82 82
77 78 77 77 74 70 72 71 73 74 74 70 73 74 74 76 79 83 81 87 89 92 94 98 96 91 78 74 78 78 77 78 80 52 57 60 69 79 80 81 80 81 83
79 80 79 78 75 66 59 72 72 73 76 74 74 73 72 73 80 88 93 92 90 93 94 89 91 83 68 77 84 78 80 75 72 66 68 68 59 67 64 69 78 79 81
84 83 78 77 79 58 67 75 74 70 76 77 81 77 78 83 83 93 93 90 89 92 93 96 95 91 80 88 89 89 84 78 76 71 80 64 63 65 58 54 61 68 72
85 84 79 77 76 72 80 80 80 69 74 78 82 83 74 65 82 76 86 91 93 92 85 83 86 88 90 91 90 88 88 88 81 69 73 69 63 66 62 50 68 72 74
86 83 82 79 73 72 83 86 82 78 79 78 80 83 85 82 82 80 84 88 88 85 94 95 95 84 89 90 86 84 86 86 78 71 72 77 65 60 56 59 65 65 71
86 85 82 77 78 76 86 92 89 83 80 81 79 78 82 84 84 97 86 86 86 86 74 86 89 89 79 77 80 83 77 76 70 67 69 62 62 59 50 47 45 66 72
84 77 76 80 84 80 91 91 87 68 76 80 88 84 94 84 91 94 89 86 90 88 85 79 80 82 85 80 82 82 73 77 73 76 68 68 55 51 49 51 67 67 68

GFSMA_sfc_rhum_009.txt.gz
RH
97 97 95 97 96 93 91 92 86 70 77 64 59 52 54 54 52 66 90 77 78 79 75 76 78 70 77 76 77 77 75 74 77 77 75 75 78 77 79 77 77 78 76
91 90 92 75 73 76 81 75 82 77 71 71 71 53 52 52 59 59 75 86 78 78 78 76 80 72 72 78 77 77 77 77 76 75 79 82 81 81 80 78 77 76 78
79 84 90 90 88 82 79 79 76 78 71 68 66 57 55 57 57 55 59 66 81 78 75 76 81 80 77 77 74 78 80 82 80 80 81 81 83 82 83 82 82 81 80
84 84 91 91 94 82 79 89 90 82 83 78 66 63 61 60 54 50 56 58 77 71 79 75 78 81 78 73 77 78 82 84 83 83 83 82 82 83 86 86 85 85 84
82 86 92 89 83 92 89 84 85 79 70 73 62 64 66 61 58 43 53 54 58 67 78 77 78 77 72 72 73 75 76 82 85 85 85 84 85 85 86 86 87 87 88
81 88 86 90 83 91 88 86 78 77 77 77 60 55 67 60 64 60 59 49 54 63 68 73 84 82 79 74 77 76 76 78 81 82 83 84 85 86 87 88 87 87 88
87 86 90 89 85 89 88 74 79 77 79 81 72 71 70 58 56 64 55 53 56 63 68 79 84 93 90 80 85 82 78 74 76 79 82 86 86 87 88 88 89 88 88
85 84 90 91 86 86 84 78 78 86 85 77 73 88 89 75 65 56 54 52 60 61 57 69 71 84 91 95 86 76 77 76 77 80 81 82 85 85 85 86 87 87 89
86 84 89 91 87 84 88 80 79 82 81 85 73 79 90 92 81 72 59 58 57 61 66 66 63 61 86 92 80 68 67 71 66 67 68 70 72 74 77 82 87 89 90
87 83 84 90 88 84 87 82 80 84 88 84 86 73 79 75 88 88 79 59 62 52 57 58 66 60 64 87 77 70 68 70 62 60 59 59 60 60 61 64 73 78 82
83 82 88 90 83 78 88 86 80 79 90 87 89 87 86 87 79 80 88 76 67 65 63 54 55 60 58 73 74 72 71 69 66 60 59 59 59 59 57 57 59 62 64
84 89 84 86 84 86 83 82 84 83 88 88 86 89 82 83 81 86 80 83 77 72 63 63 58 55 66 66 66 67 72 70 68 66 66 60 59 57 54 53 54 56 58
93 90 84 83 83 86 86 84 83 85 84 85 80 84 89 81 78 79 78 84 77 78 68 64 64 65 57 60 66 70 71 71 72 72 70 70 68 63 60 57 56 55 55
75 81 78 81 83 76 88 91 89 88 85 84 80 81 83 87 82 78 72 72 87 89 78 63 68 70 65 64 66 74 72 77 80 80 80 79 75 74 73 70 67 64 62
73 76 85 84 82 82 87 89 90 85 88 87 78 82 82 78 82 80 73 73 75 85 82 73 61 70 70 69 68 71 66 74 82 82 84 82 83 81 80 78 78 77 77
79 73 85 85 88 79 85 89 86 89 88 88 85 87 83 82 80 80 68 76 75 66 81 77 74 70 70 62 65 69 65 78 78 87 86 84 81 81 81 83 82 81 81
82 78 77 88 82 81 83 89 85 82 90 82 83 82 87 86 82 72 84 79 71 76 81 79 74 73 69 65 68 72 72 73 74 81 84 84 83 83 82 83 84 85 84
76 76 80 76 83 79 83 85 82 77 84 90 83 84 81 69 85 85 81 83 87 90 93 85 86 81 78 73 76 82 75 63 68 67 79 84 87 87 86 85 85 84 84
80 78 73 79 81 81 81 83 77 83 88 85 87 85 83 81 88 92 89 88 88 89 92 93 92 91 83 80 70 76 81 77 70 72 76 77 78 82 86 88 86 85 85
84 77 76 78 82 79 77 81 83 88 90 86 83 77 76 83 85 90 83 88 92 92 96 96 96 97 96 75 77 86 83 83 79 64 70 72 75 78 83 87 88 87 87
87 83 88 88 87 78 72 85 81 91 90 86 81 77 77 80 83 87 94 92 90 93 95 98 97 96 86 81 83 86 91 87 85 80 77 76 70 71 70 76 80 83 87
91 92 89 87 93 72 80 84 82 83 89 90 82 82 70 81 84 88 91 87 89 94 96 98 97 97 95 89 95 95 96 96 94 78 88 67 65 68 61 64 70 74 74
94 96 91 86 93 89 83 84 84 81 83 83 82 89 80 81 90 86 90 91 91 91 86 88 88 93 94 94 93 93 94 96 97 74 90 79 80 82 70 66 72 74 78
94 94 87 90 92 91 86 86 82 84 86 80 87 89 90 79 86 90 92 94 93 94 95 95 96 85 95 94 95 92 93 93 95 92 89 96 84 85 70 68 72 68 68
93 88 93 93 93 92 92 90 90 90 88 86 87 90 88 85 90 98 93 91 91 93 85 94 95 95 94 93 93 94 91 96 95 90 82 89 78 74 63 51 46 59 70
97 96 95 94 90 87 91 90 88 81 81 88 92 82 88 89 97 100 95 95 96 96 92 90 91 90 86 81 83 87 72 82 96 97 84 74 70 65 50 54 66 58 67

GFSMA_sfc_rhum_015.txt.gz
RH
98 95 92 96 95 95 95 94 90 86 76 70 70 63 62 66 86 87 90 77 79 79 76 71 73 74 75 75 76 76 75 76 78 77 73 77 73 72 72 74 74 74 74
96 95 94 94 94 94 88 86 92 76 75 73 68 74 60 60 76 84 88 90 78 78 79 77 73 70 75 76 75 76 76 74 73 74 76 78 80 76 74 76 77 78 78
92 90 95 95 93 95 92 90 80 84 74 63 63 65 64 67 62 71 80 87 85 75 77 77 76 71 69 76 76 77 78 80 78 78 80 80 80 80 80 77 78 79 78
90 94 97 95 95 93 95 92 93 89 72 66 72 75 70 70 61 58 69 77 84 78 77 74 79 79 76 71 73 76 80 82 83 82 82 79 80 81 81 81 80 82 82
90 96 96 94 92 96 91 89 93 88 76 77 72 76 74 72 66 59 64 64 77 86 86 76 79 80 74 71 70 71 76 81 84 81 81 82 82 82 83 85 85 87 85
90 95 92 93 91 96 95 92 86 87 81 84 70 66 77 75 70 69 70 75 83 77 75 80 89 86 79 72 73 74 76 76 78 80 84 85 85 86 86 87 87 87 87
92 92 94 94 93 95 92 87 88 80 81 91 74 85 84 76 70 67 72 80 83 86 84 90 95 96 91 79 81 78 74 75 74 77 79 82 84 83 84 85 86 86 87
92 91 93 95 95 97 93 92 83 88 91 91 82 94 90 82 67 62 72 75 83 85 83 88 92 94 92 94 87 78 77 76 77 77 78 81 82 82 84 85 85 85 85
88 91 92 95 96 97 96 90 83 82 84 92 86 85 94 93 93 75 64 70 73 80 83 84 91 95 94 93 81 72 69 78 70 70 71 72 73 73 74 77 81 82 84
85 88 91 94 96 98 94 87 82 86 86 83 95 84 89 90 88 87 83 76 71 64 74 77 73 77 95 96 79 69 69 73 67 56 57 58 58 59 59 61 65 70 71
90 88 92 94 95 97 94 87 89 91 90 84 90 92 92 94 87 93 83 76 77 74 69 66 76 72 88 94 91 78 72 70 69 62 54 52 53 54 54 54 56 58 59
97 92 90 92 93 92 91 88 90 89 95 92 95 95 88 81 87 86 91 89 80 71 76 72 70 73 73 90 83 74 75 72 69 68 69 63 56 53 51 50 50 52 53
99 96 93 96 94 90 90 89 91 88 94 94 90 92 93 85 87 87 81 88 80 81 80 79 77 70 64 78 81 77 75 79 74 73 72 71 72 67 59 55 54 54 56
88 89 89 90 95 85 88 91 93 92 94 94 86 90 94 89 85 82 73 83 86 91 89 72 77 82 76 74 72 75 84 84 81 81 82 80 76 76 76 74 72 70 68
84 90 89 92 92 87 86 91 92 94 95 94 94 94 92 92 95 88 87 75 67 80 80 74 76 73 84 81 74 76 89 80 83 82 84 85 85 82 82 81 81 80 80
86 90 90 90 90 87 87 90 92 92 95 96 93 93 94 92 88 90 91 92 80 74 71 72 73 79 74 70 73 82 77 80 83 86 89 89 88 87 85 84 84 84 83
85 85 87 89 89 86 87 88 91 92 93 95 94 92 89 91 90 91 91 94 91 83 79 68 86 79 79 79 71 74 75 79 83 86 88 89 90 90 89 87 87 87 88
86 85 86 88 89 85 84 86 88 84 88 92 95 94 92 84 92 93 90 92 91 94 94 87 83 84 83 75 83 85 77 72 81 76 83 87 89 91 92 93 92 92 92
85 82 85 89 90 88 83 82 82 83 85 84 88 93 92 90 91 95 95 95 96 95 96 94 84 95 91 91 80 88 86 85 77 77 78 76 79 83 85 87 88 92 94
86 82 84 84 89 89 88 88 90 90 82 88 90 83 89 88 90 89 91 94 96 97 97 97 97 96 95 87 93 94 90 93 88 72 77 83 85 81 81 79 78 81 86
84 82 84 84 87 88 90 92 91 92 91 91 91 92 91 85 85 83 94 95 96 97 98 98 98 95 90 91 93 94 95 96 96 96 93 91 87 79 75 79 74 76 82
87 88 86 85 91 88 89 91 90 95 94 94 95 97 92 89 90 87 88 90 89 95 96 99 98 94 94 95 96 96 97 97 98 95 95 90 84 77 78 82 78 84 86
92 94 88 91 94 91 91 92 94 97 96 95 90 95 91 87 92 91 93 95 95 96 94 95 96 93 92 93 94 94 97 98 98 97 95 97 93 85 79 77 82 84 81
95 96 91 90 93 94 96 95 96 96 96 94 92 92 94 93 94 92 93 93 94 94 95 99 96 85 92 94 96 95 96 97 97 98 95 98 94 94 88 82 80 81 77
95 97 96 95 94 95 99 97 96 95 97 96 94 96 94 94 95 98 94 94 93 93 96 97 97 97 98 99 98 98 98 100 99 97 96 96 95 95 88 72 62 70 72
95 97 97 95 95 96 100 100 99 96 98 98 97 97 95 93 98 100 95 95 94 92 94 91 87 85 88 89 91 97 98 99 98 97 95 95 94 85 72 72 66 57 59

GFSMA_sfc_rhum_021.txt.gz
RH
70 67 66 61 62 58 56 75 66 78 67 64 52 46 42 45 47 40 44 70 70 67 62 69 69 74 75 73 76 73 71 70 75 74 74 74 72 76 71 70 71 74 71
68 63 66 58 60 62 61 72 78 65 68 53 54 52 43 40 50 49 40 48 69 67 66 69 68 72 74 74 74 75 75 76 75 77 77 75 76 73 71 72 74 74 76
74 75 66 61 59 67 77 77 72 59 57 44 64 47 41 50 43 48 44 42 47 67 67 67 70 71 72 74 74 75 76 78 76 77 77 75 79 78 78 76 74 76 77
74 75 66 60 62 67 83 80 80 69 55 45 50 62 47 45 47 46 44 44 47 39 62 70 70 73 68 67 73 74 76 78 79 80 79 78 80 80 80 80 80 79 79
71 72 65 61 71 63 79 80 71 62 53 48 43 48 48 46 46 38 50 50 51 47 44 68 76 74 68 69 70 70 73 79 79 79 80 82 82 81 82 83 83 83 82
70 73 66 70 69 63 65 63 72 61 54 54 42 49 48 46 46 48 46 44 53 54 49 56 53 53 73 64 68 68 68 72 74 77 81 83 84 84 84 85 85 85 85
75 76 63 73 72 67 70 73 65 66 53 59 51 50 51 47 46 48 46 42 46 46 51 54 52 52 56 74 74 74 70 69 68 69 71 77 80 82 82 82 84 83 88
75 73 74 70 74 65 77 76 72 57 52 57 51 51 50 48 42 40 46 46 51 39 41 52 60 64 58 51 64 72 76 75 75 76 79 81 82 80 82 83 84 82 82
73 76 75 71 74 70 64 75 71 69 53 59 62 50 50 47 49 45 51 46 54 42 43 49 52 59 60 49 48 50 65 74 67 67 69 70 70 70 70 71 72 73 74
69 72 75 75 77 66 72 73 69 66 65 54 59 57 64 61 48 50 45 46 46 42 48 42 43 48 55 44 59 60 59 63 58 52 51 52 54 55 57 59 62 63 63
71 67 74 76 77 69 74 77 78 77 61 52 50 56 62 56 64 52 49 45 44 41 41 44 40 40 49 48 44 56 62 63 52 51 49 47 47 48 48 50 52 54 55
61 72 72 76 76 73 76 74 78 77 70 62 55 57 48 48 49 52 53 56 46 44 40 40 43 41 42 42 49 71 74 75 69 66 64 56 52 50 51 49 48 49 50
59 69 77 78 70 78 74 75 80 76 73 65 72 54 54 50 49 47 49 52 50 46 46 44 41 43 41 45 43 69 76 82 80 78 73 69 69 65 60 60 60 59 58
59 66 73 72 75 75 74 76 69 65 70 66 72 69 54 54 52 50 48 49 51 50 49 51 44 42 46 46 52 69 48 83 86 86 85 80 77 75 76 74 73 72 70
56 66 70 73 74 75 76 78 64 74 71 70 68 72 60 54 53 49 48 47 45 45 44 44 41 50 47 46 53 48 51 71 88 89 89 87 84 82 83 82 81 82 82
69 66 70 71 73 76 77 80 70 74 75 64 58 72 71 55 57 54 50 49 48 46 46 42 42 47 50 45 53 55 51 71 77 86 89 89 89 86 86 86 87 87 87
73 72 74 73 73 75 78 80 76 72 75 73 70 72 74 73 54 53 55 54 54 52 50 46 46 52 64 60 51 54 51 53 46 86 88 90 91 92 90 90 90 90 90
74 76 74 74 74 74 77 79 76 70 75 74 72 72 71 62 74 70 57 68 59 62 51 70 55 52 66 63 61 65 53 40 46 64 84 89 91 90 90 90 91 91 90
77 70 74 77 74 74 77 78 76 75 74 72 70 72 74 75 76 59 63 60 56 63 64 56 52 53 53 54 59 65 65 59 50 70 81 78 82 86 84 86 84 82 84
78 77 77 75 73 72 74 73 75 76 74 72 72 69 69 71 73 76 70 74 68 65 68 63 53 53 56 58 59 55 52 51 50 40 56 69 78 79 78 78 81 82 85
76 76 77 76 74 69 63 74 74 75 77 74 74 72 70 72 81 76 63 74 74 69 60 58 56 55 53 55 60 48 53 49 53 53 52 52 47 46 48 71 65 72 82
79 79 77 77 77 64 77 88 78 74 77 78 77 77 73 85 84 89 86 84 75 76 75 58 56 59 73 67 56 55 54 54 52 59 57 46 50 48 44 45 71 77 84
79 81 78 77 78 77 88 91 91 69 74 76 77 78 74 65 81 73 88 87 87 86 78 74 73 67 67 70 70 78 71 65 58 51 67 53 47 51 44 39 76 84 88
81 80 80 80 79 75 91 93 92 77 76 76 76 76 78 76 78 76 74 74 73 73 76 61 69 69 67 69 80 70 80 76 68 61 69 60 45 49 44 39 64 78 83
79 79 77 81 83 79 94 94 93 76 75 81 78 76 77 78 88 93 86 76 75 74 86 93 93 94 95 92 81 66 66 68 55 49 56 55 45 47 41 39 34 64 70
76 69 76 78 83 79 97 97 91 65 77 80 85 82 94 88 98 96 85 76 76 72 71 78 78 89 87 83 97 76 52 51 44 47 52 48 40 41 37 29 32 30 29

GFSMA_sfc_rhum_024.txt.gz
RH
59 51 52 44 47 40 39 56 47 44 54 46 41 34 28 32 31 26 34 66 67 62 61 66 70 73 70 74 74 72 66 66 73 71 72 72 71 73 70 68 68 72 70
55 46 49 44 43 42 47 49 54 57 50 40 41 35 31 30 36 34 29 45 65 64 62 69 67 73 72 72 74 74 73 72 72 77 75 75 74 71 70 69 72 72 73
61 70 48 46 43 61 55 51 51 46 42 34 47 37 31 34 31 35 30 32 47 67 64 67 68 70 72 73 73 74 74 77 75 77 77 76 76 77 77 75 72 73 75
64 63 59 50 45 55 48 46 47 46 39 36 37 35 32 31 34 34 31 32 32 36 62 65 68 71 70 66 71 73 76 76 78 77 77 77 76 79 79 79 79 79 78
60 61 64 50 58 51 50 48 51 50 42 37 32 34 33 32 32 30 37 35 38 33 35 68 67 68 67 66 68 70 73 74 78 77 78 81 80 81 81 81 81 82 82
58 61 51 56 52 48 58 64 59 48 43 34 27 34 34 33 32 32 32 29 37 37 37 46 50 58 66 63 67 65 66 70 73 75 77 80 81 82 84 85 85 84 82
61 66 52 55 53 56 64 62 58 59 42 40 38 36 38 37 35 32 29 28 32 31 36 38 43 53 50 73 73 71 68 68 67 68 69 72 76 81 82 84 84 82 83
63 62 75 65 58 62 68 65 71 45 43 38 38 37 39 38 32 30 32 31 33 26 31 37 44 49 43 47 56 70 74 74 74 75 77 78 79 77 78 79 80 82 81
60 66 64 64 68 58 76 67 64 61 43 42 49 40 39 37 36 36 41 33 40 31 34 38 38 44 44 37 48 50 65 68 61 62 64 65 66 67 67 67 68 69 70
58 58 62 64 71 51 61 71 56 58 62 45 42 40 51 51 37 42 37 37 36 34 37 32 34 38 42 32 50 57 58 61 53 49 48 49 51 52 54 56 58 60 60
60 54 60 65 66 69 62 67 66 71 53 46 36 42 49 41 47 40 46 39 38 34 33 35 31 31 39 36 36 53 55 51 50 50 47 46 46 47 46 48 49 50 52
49 60 57 62 64 63 64 64 69 70 66 56 38 42 38 38 37 38 37 44 37 36 33 32 36 32 32 34 40 68 66 68 63 57 55 54 52 50 51 50 49 49 50
42 56 64 66 60 68 62 66 72 67 69 60 66 37 37 38 36 35 34 35 36 34 36 33 32 33 31 34 36 61 76 79 76 75 71 68 65 62 60 58 58 59 58
43 51 58 61 64 62 65 67 61 60 63 62 65 58 35 38 38 38 36 36 39 37 36 46 32 31 32 34 46 67 43 81 83 84 85 83 77 75 76 75 73 72 70
42 51 55 63 61 62 65 69 58 66 62 66 62 62 48 34 38 35 35 34 35 37 35 42 34 38 33 32 44 42 41 78 84 87 88 89 88 84 81 82 82 83 83
59 52 59 60 61 63 65 71 61 65 70 57 50 59 60 36 40 38 35 34 34 35 37 31 34 35 36 32 49 43 40 68 80 83 90 91 90 87 86 86 87 88 88
63 64 63 62 60 62 65 71 69 60 71 70 61 59 65 57 37 36 38 36 36 36 39 32 33 41 54 54 43 44 43 44 41 81 85 87 90 90 87 87 87 87 87
65 66 64 65 62 60 64 69 70 58 66 69 66 66 63 50 64 58 41 56 48 48 40 58 45 39 58 53 56 57 46 33 36 72 82 83 87 89 90 90 88 88 89
70 59 64 69 66 62 64 66 68 66 63 66 64 65 64 61 66 48 53 45 44 47 50 42 43 41 40 42 53 59 57 54 42 68 74 83 86 86 86 87 86 84 82
71 69 67 68 65 62 61 61 65 66 64 62 64 62 62 63 65 66 57 61 53 48 53 46 41 38 42 47 46 42 46 46 44 35 51 59 68 79 85 87 84 82 84
70 70 69 67 66 57 49 64 64 64 67 66 65 64 63 66 72 68 50 64 68 58 40 44 42 39 40 41 50 40 40 39 45 44 43 40 38 40 49 78 62 80 83
72 72 70 69 68 51 63 76 69 63 67 70 69 67 65 79 78 83 79 78 69 68 67 42 40 46 58 52 47 44 42 43 44 48 52 44 37 38 37 35 75 75 80
73 76 73 70 72 68 75 80 83 58 64 67 71 68 63 54 76 67 85 85 84 84 80 66 67 58 59 61 66 72 64 57 52 48 62 49 39 38 35 32 74 73 84
74 74 74 74 73 68 83 84 83 69 65 65 66 67 69 68 68 71 71 70 69 65 69 52 60 60 69 60 69 70 71 67 58 51 58 58 39 36 34 34 64 68 75
73 72 72 76 77 73 89 88 87 66 64 69 65 66 68 71 80 88 72 75 75 78 80 83 91 90 87 86 79 51 55 52 49 45 52 45 38 36 36 34 30 56 54
71 61 67 70 77 74 90 93 86 54 62 55 69 74 88 74 91 93 77 73 78 74 72 66 72 83 88 80 95 71 49 50 44 37 47 42 34 33 37 28 27 25 25

GFSMA_sfc_rhum_027.txt.gz
RH
53 59 51 64 58 54 82 44 52 47 49 59 64 32 28 28 30 40 44 75 70 62 64 66 72 70 71 73 74 69 63 70 72 69 70 70 70 71 68 66 66 70 70
52 72 61 66 67 68 78 46 48 72 43 46 39 32 31 30 31 35 40 52 73 66 63 68 70 73 71 72 74 72 71 65 69 74 72 74 72 69 69 66 68 70 70
56 64 73 59 72 53 56 57 51 92 52 31 37 32 46 31 30 31 43 46 51 71 67 70 69 73 72 72 73 75 75 76 76 75 76 75 75 76 75 74 72 71 72
56 60 50 45 77 48 46 67 59 37 41 34 33 32 29 29 32 31 30 36 58 43 65 70 69 71 69 71 71 73 75 76 77 77 77 77 77 76 77 78 78 78 78
56 57 48 66 56 72 44 46 49 44 36 32 29 29 30 29 40 29 32 34 36 58 50 71 73 71 68 63 66 70 72 75 77 79 79 80 79 81 81 82 80 81 81
56 59 61 52 52 82 54 48 63 43 39 31 24 31 31 30 30 32 31 27 32 36 48 51 54 59 68 63 64 64 64 69 72 75 76 78 80 80 81 82 83 82 83
58 63 54 59 52 63 56 58 51 54 36 38 35 34 36 34 32 29 26 26 30 29 32 38 59 52 59 73 71 68 65 65 65 67 72 72 74 77 79 82 82 82 84
58 66 68 54 54 60 61 62 61 72 36 35 44 36 50 38 30 27 29 28 30 26 30 36 44 59 68 54 61 72 74 73 74 75 76 77 79 78 79 78 78 80 79
54 59 61 58 56 60 76 64 59 59 68 37 49 42 42 68 39 37 38 32 37 30 33 36 37 42 44 41 50 54 67 68 61 62 62 63 64 66 66 66 66 68 69
53 53 61 58 71 52 88 70 54 58 60 45 38 37 50 56 66 62 44 34 36 33 36 32 35 38 40 35 52 63 63 63 55 49 49 50 52 53 54 56 57 58 58
57 50 59 66 67 58 66 68 66 67 51 49 36 37 46 35 42 51 48 58 39 32 34 34 30 33 40 35 41 55 63 59 58 50 47 46 48 47 46 47 47 48 50
50 60 54 66 67 64 61 62 68 66 67 55 40 40 38 40 39 39 38 47 39 46 31 31 35 32 32 34 48 67 68 65 61 54 50 48 48 48 49 49 48 49 51
38 58 66 72 59 69 61 65 74 67 67 61 67 38 35 35 34 34 34 34 36 33 34 30 31 32 29 33 40 58 74 74 72 69 67 66 63 61 60 58 58 59 58
38 51 64 62 63 64 64 66 58 58 64 61 64 66 36 35 35 36 36 36 39 36 36 45 30 30 33 33 46 69 50 82 80 81 81 80 76 75 76 74 72 71 69
37 49 56 63 62 63 65 69 56 66 64 66 65 66 52 33 33 34 34 34 37 40 53 46 34 42 32 33 44 40 42 83 84 84 85 86 87 84 83 82 82 82 82
58 52 56 58 63 64 66 72 61 64 71 58 53 67 66 38 35 35 33 33 33 35 37 32 36 38 39 31 51 40 40 71 82 83 85 88 89 86 86 85 85 86 87
62 63 64 63 64 65 67 72 70 62 70 71 66 64 69 68 36 33 35 34 35 35 37 33 32 47 58 52 47 45 43 49 45 79 83 85 87 87 85 85 86 87 86
64 65 65 67 66 64 66 70 70 57 64 69 68 68 63 52 70 64 38 62 47 49 39 65 52 44 60 64 62 63 48 34 40 74 83 82 84 86 88 88 88 88 87
68 60 66 69 69 65 66 68 70 69 63 64 66 69 66 66 71 50 55 46 43 47 49 47 43 40 41 48 64 63 64 62 45 74 78 80 82 85 88 86 85 85 84
70 69 66 68 68 66 64 64 67 70 68 63 66 66 67 67 71 72 62 68 59 49 54 46 43 39 39 50 47 50 69 57 58 46 54 61 65 80 82 82 82 83 83
69 69 70 67 68 63 53 66 64 67 71 69 66 66 66 67 74 72 56 66 68 57 40 43 45 41 38 53 61 54 63 68 83 52 51 56 58 56 62 78 67 81 82
71 72 70 69 69 55 64 74 68 64 69 72 71 69 66 78 78 80 78 79 67 71 69 41 39 47 68 52 45 44 49 56 77 74 52 55 57 63 46 47 73 78 81
72 75 72 70 72 69 75 76 79 59 64 68 72 70 64 50 75 67 83 79 84 80 75 72 71 62 64 66 65 66 76 65 58 67 75 57 45 43 36 49 80 75 80
75 74 73 74 73 68 81 81 79 64 65 66 68 70 71 66 72 72 70 70 68 65 72 58 69 66 66 64 69 72 79 76 65 56 74 60 46 42 36 35 74 77 70
74 72 71 75 77 74 88 88 84 62 63 68 66 67 68 70 78 85 74 76 75 71 78 86 85 82 83 80 69 70 59 62 57 53 68 51 43 39 35 35 40 69 65
72 62 68 71 77 75 90 92 84 54 62 58 68 71 82 70 89 87 77 77 81 78 72 74 80 83 86 82 89 74 54 60 66 57 54 43 40 37 38 34 31 35 32

GFSMA_sfc_rhum_033.txt.gz
RH
95 92 89 91 89 94 84 79 89 74 77 66 63 53 53 54 59 74 91 79 81 78 74 73 74 74 73 69 70 73 72 72 73 72 72 72 72 75 71 68 68 72 72
95 92 92 96 92 93 91 91 88 80 67 75 68 45 51 59 62 71 82 85 80 80 76 74 73 73 73 74 73 67 66 74 75 72 73 77 77 76 73 69 68 71 74
84 75 95 90 94 95 90 92 88 81 67 64 66 47 50 58 64 66 66 77 78 76 79 77 79 78 75 74 74 74 74 73 71 74 77 75 78 78 77 76 76 75 76
77 92 88 87 88 84 86 89 82 79 81 73 64 56 47 45 61 60 66 71 74 69 79 79 80 82 74 72 73 75 76 81 81 80 80 80 79 79 80 81 80 82 82
76 87 94 91 89 89 86 80 81 78 75 71 54 65 60 51 47 56 63 65 73 72 80 83 81 82 74 72 72 73 75 80 82 82 81 82 82 82 84 83 82 84 85
77 83 92 94 90 84 88 83 75 70 65 60 43 55 60 56 54 54 61 59 69 65 80 86 90 84 80 72 74 73 72 76 80 82 84 85 84 85 85 85 83 84 84
80 86 92 92 91 87 90 78 78 78 64 69 70 68 65 54 51 59 60 74 68 65 76 87 87 82 82 79 77 75 68 68 73 76 80 79 80 81 82 84 84 82 83
85 86 88 90 90 93 87 82 84 89 78 66 79 68 68 64 62 57 57 58 70 68 71 76 78 84 88 91 89 82 81 77 77 78 79 82 84 85 85 84 83 82 82
84 86 86 89 92 92 94 88 86 88 83 74 72 81 78 74 75 60 61 53 64 68 77 79 80 80 86 92 85 80 83 82 77 74 73 74 77 77 75 75 74 74 74
80 84 84 87 88 92 87 91 86 87 86 70 72 65 79 79 82 74 72 64 63 57 67 79 78 81 72 79 74 76 75 72 70 60 54 56 61 63 60 63 69 69 70
82 79 84 87 87 95 89 87 89 89 92 83 70 73 75 77 77 83 79 69 71 68 68 64 66 74 67 75 76 74 72 70 68 67 65 60 57 54 53 53 55 59 62
80 83 82 84 89 90 93 90 90 91 87 91 84 80 67 69 74 75 81 82 70 71 64 64 63 69 66 67 56 68 73 72 71 68 67 66 65 57 51 51 52 53 54
78 83 89 87 90 89 93 90 91 94 92 91 89 79 82 70 75 71 76 79 76 75 70 70 66 68 66 64 60 70 72 76 76 76 75 70 68 68 67 63 60 60 61
74 73 80 83 85 88 91 90 92 93 94 92 90 87 80 83 79 67 64 74 75 76 79 59 72 65 72 63 66 74 71 78 78 78 77 78 74 72 72 73 75 75 74
63 74 73 87 82 82 87 94 86 91 95 94 92 93 90 82 81 74 66 70 70 80 80 70 68 69 74 72 70 67 68 78 81 80 79 81 82 83 79 78 79 80 81
73 70 75 76 82 84 83 87 94 94 94 94 89 94 94 92 80 80 72 66 72 71 70 79 68 69 72 61 68 64 64 76 84 85 84 85 86 86 84 84 84 84 84
78 83 80 76 79 79 88 86 89 92 95 94 91 92 92 91 81 78 76 75 68 71 67 67 73 69 74 77 74 78 76 80 78 85 85 86 86 87 88 87 87 86 86
76 87 84 81 82 79 80 88 88 79 87 94 94 92 90 80 87 88 88 72 70 76 66 65 86 83 74 73 68 72 70 60 72 76 85 85 86 85 89 90 90 89 88
81 69 89 82 81 80 83 80 84 85 85 89 88 89 87 86 83 74 90 86 80 72 81 75 84 86 81 85 87 83 80 77 67 75 82 85 85 83 86 87 89 91 92
71 82 71 81 80 78 77 79 80 82 83 79 91 84 82 86 78 75 74 79 86 82 86 81 81 81 86 87 76 76 94 94 81 67 70 75 79 84 84 82 86 88 90
72 72 79 73 79 75 73 78 77 80 82 83 79 87 84 79 82 76 72 71 73 87 74 76 89 84 81 95 82 87 72 76 88 87 78 72 77 81 75 82 79 85 88
71 75 77 71 76 73 80 86 78 77 79 81 85 80 79 88 85 87 85 77 70 58 78 60 62 68 63 76 84 72 69 95 95 90 87 85 71 83 72 76 82 82 89
77 75 72 79 73 74 86 88 88 72 75 78 79 80 78 71 87 80 89 86 82 80 63 65 63 59 59 60 66 79 72 76 89 86 89 82 87 86 81 74 85 88 90
75 77 78 74 78 74 89 90 89 74 73 74 76 77 78 77 74 83 82 83 79 75 75 61 59 60 62 68 65 71 81 82 92 89 85 83 79 78 80 73 88 86 91
73 74 76 78 79 77 94 93 91 78 73 73 73 75 77 77 82 92 83 85 82 77 78 83 74 74 82 88 88 84 90 94 97 94 92 82 79 77 73 78 82 88 86
72 74 74 76 82 78 94 96 94 76 76 74 71 70 87 80 90 93 83 82 86 81 76 73 81 89 87 82 90 68 87 91 96 93 80 81 83 77 64 73 79 85 76

GFSMA_sfc_rhum_036.txt.gz
RH
95 94 92 91 93 94 88 81 88 80 78 73 66 73 66 66 76 86 96 82 84 79 74 74 73 69 69 73 74 72 72 73 75 73 73 73 73 74 70 69 70 73 74
95 97 95 94 93 94 92 89 88 85 75 76 71 61 67 69 73 83 89 90 82 81 78 73 75 74 74 70 68 72 74 74 72 72 74 75 75 77 75 71 69 72 75
90 92 96 93 94 95 88 94 92 82 65 67 69 54 68 71 72 80 86 88 87 81 79 78 76 76 74 75 76 72 69 71 72 75 77 76 78 78 76 76 77 77 76
90 94 92 93 95 97 98 97 88 81 76 74 69 59 67 73 73 74 80 84 84 77 83 80 82 81 77 74 75 75 76 78 78 79 80 80 80 79 79 80 81 81 81
86 92 94 93 90 94 93 84 89 92 85 76 73 69 58 68 70 63 73 75 81 82 91 83 83 83 76 74 73 76 77 80 82 81 81 82 81 82 83 83 82 82 83
83 90 94 92 94 89 92 88 82 75 65 67 52 61 63 58 70 78 70 68 77 80 89 91 91 87 79 74 77 75 75 78 81 81 83 86 86 84 84 85 84 82 83
84 90 95 94 93 88 90 82 83 81 64 76 69 67 68 67 58 71 76 79 76 77 87 92 95 92 87 80 78 76 68 69 72 76 80 86 84 83 83 83 84 83 83
87 90 93 95 93 93 94 86 88 91 76 74 80 74 70 61 66 64 79 78 79 78 80 84 87 89 92 94 88 80 80 76 75 78 80 82 84 85 85 85 84 80 79
87 91 88 93 94 94 93 91 89 85 76 79 76 72 76 72 78 70 64 75 79 82 85 82 83 86 91 95 89 85 85 85 78 76 76 78 79 79 76 74 75 75 75
87 87 87 90 92 97 94 93 89 91 85 70 74 74 81 83 75 70 74 72 75 70 84 92 88 85 88 94 84 82 85 83 78 65 60 60 62 62 60 61 67 72 72
86 81 87 88 91 96 90 92 94 93 91 86 69 79 78 82 86 80 76 74 77 72 80 86 84 90 81 79 84 81 78 75 72 69 65 60 58 56 53 53 53 56 57
81 88 85 88 90 96 94 91 91 93 93 89 82 77 70 69 74 80 86 84 74 70 74 77 79 86 80 78 67 70 75 74 73 71 70 69 67 59 54 54 54 55 56
89 91 93 93 88 94 95 92 94 95 94 95 92 85 78 70 78 75 78 86 79 77 74 73 76 78 73 77 74 71 74 77 78 79 76 72 70 69 68 63 61 61 62
77 76 85 87 87 91 93 94 95 96 96 95 92 89 86 85 83 76 68 79 76 84 84 65 77 75 79 69 68 76 74 79 80 79 79 79 78 74 73 74 74 75 73
77 79 79 85 85 87 90 95 93 95 96 96 94 94 90 83 84 83 75 73 69 82 78 72 71 75 72 77 66 72 70 77 81 81 81 80 79 79 79 77 78 80 80
78 77 80 83 86 84 87 95 95 94 96 98 94 95 96 94 85 84 82 75 74 69 71 73 74 76 71 69 69 70 60 74 82 81 82 82 82 82 82 83 85 85 84
79 77 80 82 85 86 84 89 93 96 93 93 95 95 94 93 92 85 84 84 78 76 67 63 82 74 84 82 73 77 68 69 71 85 83 84 86 87 87 86 88 88 87
86 77 88 82 83 84 84 85 89 85 96 96 95 95 89 85 95 92 84 83 81 78 69 66 71 89 77 82 75 81 67 59 70 73 85 85 86 88 89 88 89 92 91
78 90 89 86 84 82 84 86 84 85 92 92 92 92 89 92 90 90 93 82 87 77 81 70 66 91 84 89 84 82 83 75 73 74 83 87 86 87 88 87 89 93 94
74 82 90 89 86 84 80 80 83 87 86 88 90 89 87 88 85 85 87 88 88 90 90 88 83 91 92 90 85 69 80 94 73 67 72 76 82 87 88 86 88 90 92
86 72 75 84 87 83 79 82 80 82 88 88 88 91 87 84 84 80 77 78 85 84 93 85 90 90 93 96 79 79 72 64 79 89 85 80 80 86 83 86 80 87 90
75 81 81 82 84 79 84 88 81 80 81 84 87 86 84 90 90 90 87 80 74 73 75 70 66 73 57 78 91 62 71 94 81 93 86 76 76 79 68 72 76 85 90
82 76 74 80 78 78 89 90 90 76 79 81 82 82 83 77 91 87 92 88 84 82 69 62 62 59 58 56 58 85 73 73 64 80 85 67 86 70 65 64 81 87 89
86 86 79 75 81 76 90 92 91 80 77 78 80 80 80 81 80 89 88 93 86 77 75 64 54 54 53 52 58 57 60 67 83 84 87 69 85 78 78 71 85 89 90
79 80 81 82 78 77 94 94 94 85 82 80 78 79 80 81 85 93 89 91 91 87 81 83 77 69 72 74 66 64 73 84 91 82 85 61 87 79 85 72 70 91 90
77 76 76 78 85 82 94 96 95 79 82 80 77 76 89 83 93 95 88 85 90 87 84 80 80 81 82 73 83 57 54 70 68 93 94 66 95 90 85 73 70 83 89

GFSMA_sfc_rhum_042.txt.gz
RH
94 92 90 92 91 93 93 86 87 78 80 73 72 78 76 75 75 80 82 80 79 76 68 67 75 73 74 74 75 75 74 74 73 69 70 74 73 75 73 72 72 74 77
96 96 93 92 94 95 94 89 88 81 77 75 81 76 75 73 79 83 81 86 80 77 74 70 67 68 70 71 71 71 72 74 74 74 75 76 75 77 75 75 74 76 78
93 94 96 94 91 94 86 92 89 83 75 68 77 74 73 74 77 82 80 81 85 79 77 76 74 72 70 69 68 70 73 76 75 75 77 77 78 79 79 80 79 78 79
90 96 96 91 93 93 95 95 90 82 78 73 74 75 76 73 75 77 79 79 80 73 78 76 78 78 76 76 75 71 70 71 72 72 76 78 80 81 79 81 80 78 78
86 93 95 95 92 95 95 91 94 89 81 78 69 72 75 75 73 67 78 79 78 76 83 83 82 80 77 74 74 76 76 79 81 82 82 81 81 80 80 79 79 79 80
87 92 96 95 94 94 94 93 85 80 76 76 57 64 70 71 76 74 72 69 74 76 78 84 81 76 81 73 74 74 76 78 80 80 82 83 83 80 80 80 79 80 80
90 92 96 95 95 92 91 86 82 76 77 75 73 70 70 70 74 74 72 71 72 72 78 81 80 78 75 81 81 77 72 71 72 76 80 84 82 81 81 83 83 81 81
90 91 93 95 96 95 92 85 84 88 76 79 75 74 73 69 67 64 75 73 73 72 74 78 80 82 81 82 80 77 76 75 74 78 80 82 83 83 83 84 81 76 75
88 92 91 93 94 96 91 87 86 80 75 81 79 75 74 71 73 70 72 73 77 75 74 76 76 77 80 80 80 82 85 87 78 76 77 80 82 81 78 74 73 72 70
87 89 90 91 91 95 92 90 86 87 80 78 78 77 77 75 69 69 68 69 68 72 74 75 72 75 78 78 79 83 86 88 84 75 71 70 71 67 62 61 66 70 68
88 87 91 91 92 92 94 92 91 90 82 78 75 79 80 79 77 71 69 68 71 72 73 74 73 75 77 77 77 78 82 85 84 78 67 59 56 55 53 54 56 58 59
90 91 90 92 92 91 92 91 91 91 90 85 77 79 76 76 75 75 73 74 70 68 69 69 74 76 76 77 76 77 77 80 81 75 72 71 68 59 55 55 54 56 58
93 92 93 94 91 92 92 90 92 92 91 90 88 78 76 74 74 75 73 74 73 71 70 69 69 74 72 78 75 78 76 82 82 82 81 78 75 75 72 67 63 61 62
87 88 89 90 90 90 90 92 88 86 91 89 90 89 80 78 75 74 74 75 74 73 74 74 68 70 74 76 77 81 68 83 83 82 81 81 81 79 77 77 77 77 77
81 86 87 89 90 89 90 93 89 90 91 92 90 90 85 80 78 76 75 73 74 70 69 66 69 71 71 71 75 72 74 80 84 83 81 82 82 81 81 80 79 79 78
85 87 88 88 90 91 90 93 92 90 92 91 88 92 92 86 80 80 79 76 74 71 70 67 66 68 70 64 71 75 72 80 82 84 84 82 82 82 82 83 83 83 82
86 87 88 88 89 91 92 93 93 91 91 91 91 92 92 91 84 83 80 79 78 74 72 69 68 72 76 77 72 75 71 73 68 83 84 85 84 84 84 84 84 85 87
85 86 88 88 89 89 90 92 90 86 90 90 88 92 90 84 92 91 85 89 83 83 75 82 76 69 80 79 79 81 73 61 66 70 82 83 85 85 85 85 84 86 89
86 83 85 88 89 89 91 91 89 89 89 88 86 89 87 92 92 89 89 86 83 80 80 77 72 72 72 73 79 83 81 80 69 72 80 82 83 85 85 85 85 86 90
87 86 85 86 87 87 89 89 89 89 89 87 87 87 86 88 89 90 90 91 88 86 85 80 75 73 72 75 76 72 72 76 70 58 64 67 74 79 83 85 85 85 88
82 84 85 84 85 82 78 89 89 89 90 89 88 87 86 86 90 88 82 88 92 88 84 84 82 79 75 75 74 64 74 65 72 69 65 64 64 67 69 87 78 86 89
87 86 85 85 86 75 82 89 86 86 88 89 89 89 88 91 91 94 94 89 84 90 90 82 78 79 83 78 72 70 70 69 66 68 72 63 61 62 62 62 72 83 91
90 90 87 85 87 86 90 91 92 79 85 87 88 87 85 79 91 86 94 96 95 93 88 83 87 84 84 81 80 83 80 72 69 61 75 63 64 65 61 55 82 87 88
88 91 90 89 86 83 91 93 93 86 83 84 85 85 86 84 87 89 88 88 88 88 90 82 85 82 81 80 82 79 80 80 73 67 79 68 57 63 63 64 80 85 86
89 87 86 90 91 88 94 93 94 86 86 86 82 84 84 85 91 95 89 90 88 86 91 95 92 90 91 91 86 80 82 79 76 72 72 69 73 66 65 72 64 85 84
89 85 86 86 88 87 96 96 95 81 85 83 86 87 94 89 96 97 89 87 90 86 86 89 93 98 97 90 94 91 93 99 94 87 72 90 83 95 86 88 93 94 90

GFSMA_sfc_rhum_045.txt.gz
RH
67 64 63 59 61 61 59 58 56 54 59 54 54 55 54 56 51 45 50 73 74 68 65 72 75 74 72 73 75 74 72 73 71 68 70 72 72 75 73 75 72 73 75
72 72 82 67 63 64 62 59 58 54 54 53 59 55 56 54 55 53 46 57 75 73 70 65 67 69 71 71 70 70 72 75 74 74 75 74 75 76 76 75 77 78 78
72 74 77 83 64 67 67 66 62 57 48 48 58 56 54 56 52 54 49 49 56 76 73 74 70 68 67 67 69 71 73 75 74 74 75 78 76 75 77 78 78 77 76
73 76 67 61 66 67 62 60 55 49 75 49 53 52 54 53 56 53 49 49 50 44 69 72 74 76 75 74 71 69 68 70 70 71 73 77 76 77 78 76 76 77 78
70 70 65 66 70 66 65 57 62 59 58 48 45 50 52 52 52 41 53 55 54 51 50 76 77 75 73 70 73 73 75 77 80 80 80 80 80 78 76 77 77 77 78
68 71 69 72 72 76 61 61 63 56 56 52 37 56 49 49 51 47 48 45 50 53 51 60 56 54 76 74 71 72 73 78 80 82 79 82 80 78 77 78 77 79 80
71 76 66 72 70 65 66 69 59 63 54 55 47 46 48 48 52 50 46 46 50 48 51 52 51 49 50 76 77 76 72 71 71 73 77 79 79 78 77 80 80 79 81
72 72 75 76 77 66 75 71 69 52 52 52 48 47 46 47 45 45 48 48 51 47 47 53 56 60 57 50 61 76 75 77 75 77 78 79 80 81 81 80 77 74 73
69 74 75 70 76 87 86 79 66 61 49 57 58 45 46 44 48 48 54 48 56 50 50 52 53 56 60 53 62 62 80 81 77 74 76 78 80 80 78 73 66 65 63
68 70 75 76 80 68 85 68 65 62 60 53 55 52 58 54 43 44 44 47 51 51 52 49 46 51 57 51 63 74 79 84 80 75 72 72 74 71 64 60 61 60 60
69 66 72 76 80 76 78 74 77 75 56 49 49 54 62 51 57 44 44 43 44 43 44 49 44 46 53 54 50 64 78 84 82 77 67 61 59 57 56 56 57 58 59
61 70 69 74 75 71 75 71 80 77 70 63 52 55 49 49 47 47 46 51 48 44 42 44 47 45 45 49 57 76 78 79 81 77 74 72 66 58 55 55 56 57 58
57 68 74 76 69 76 73 74 79 76 74 67 74 50 49 47 48 49 48 46 47 46 44 42 42 44 42 47 48 74 81 80 82 80 78 76 75 76 72 66 62 61 62
52 63 70 69 72 73 72 75 68 66 71 68 73 73 56 53 48 48 47 47 46 49 48 56 42 43 45 46 52 81 56 84 84 82 80 80 80 78 78 78 78 78 76
52 63 66 69 70 71 73 75 65 73 72 73 72 74 67 56 55 52 50 48 49 50 42 43 42 51 46 46 53 52 54 72 86 84 81 80 81 81 81 80 80 80 80
67 61 68 68 69 71 73 77 68 72 77 67 63 73 74 58 60 57 54 53 53 51 50 43 41 47 49 42 51 58 53 76 85 86 84 82 80 81 81 81 82 82 82
70 69 71 70 70 70 72 77 76 70 76 76 74 74 76 76 61 57 58 57 56 55 53 43 46 48 64 63 54 56 56 56 48 85 86 85 83 81 80 80 82 84 84
68 70 69 71 70 69 70 75 72 65 73 73 72 76 74 63 79 75 63 74 65 64 59 73 58 49 62 60 63 66 55 41 46 60 86 86 86 84 82 82 83 84 84
71 64 68 71 71 69 71 73 73 71 70 70 69 72 72 72 77 64 70 64 60 66 65 64 60 50 52 49 56 63 64 61 50 64 82 86 86 85 84 83 83 84 85
73 71 71 69 67 67 67 68 70 72 72 69 70 69 70 71 75 75 71 75 71 68 67 67 61 55 54 59 57 56 52 45 46 39 50 58 65 78 84 84 83 82 84
72 72 72 70 68 63 55 68 69 71 73 72 71 71 70 73 82 80 64 73 76 72 64 60 59 56 54 53 59 50 52 50 55 50 50 45 42 44 51 82 70 81 82
75 74 72 71 70 57 70 83 75 66 72 75 74 72 72 82 85 93 93 90 80 78 80 66 59 62 76 68 59 59 59 61 61 48 56 52 47 46 43 41 59 74 83
76 78 74 72 74 72 84 87 90 62 64 68 73 72 67 55 79 71 87 95 96 94 91 80 82 77 79 74 76 80 78 72 69 56 69 61 53 52 49 42 69 77 84
79 79 76 77 76 72 90 91 91 73 71 71 70 70 73 72 68 70 69 68 68 69 78 74 78 78 76 75 80 83 88 88 82 67 70 73 57 56 59 48 70 80 89
77 76 74 78 80 78 94 94 92 72 70 76 71 71 71 73 82 95 77 75 74 71 73 93 92 92 95 95 92 83 93 92 89 75 68 72 60 58 54 53 50 80 89
75 66 71 74 80 78 95 95 92 63 69 64 73 77 90 80 92 97 82 76 79 74 70 70 70 85 93 90 97 91 97 99 99 96 74 86 82 80 80 56 58 61 58

GFSMA_sfc_rhum_048.txt.gz
RH
49 45 49 42 43 40 40 42 41 41 47 42 40 40 38 38 35 32 50 73 71 65 69 74 74 73 70 71 73 71 71 70 68 67 69 70 70 72 72 73 73 76 76
65 46 49 49 50 41 41 40 43 38 34 37 45 41 39 38 42 38 36 54 72 71 66 64 68 69 70 69 68 70 72 73 73 72 72 72 74 74 74 75 75 76 75
69 58 49 52 49 50 54 48 45 40 33 32 43 42 38 42 40 43 36 35 55 74 71 71 67 66 65 65 66 69 71 73 72 71 71 73 74 74 74 75 76 75 76
64 65 52 48 49 45 41 36 33 44 47 31 38 37 37 37 43 43 39 37 37 38 67 70 71 72 71 71 70 68 67 69 69 70 72 76 76 76 74 74 74 76 76
58 54 45 58 58 47 44 36 36 46 38 31 31 33 34 35 37 32 42 41 42 37 36 73 73 72 70 66 68 72 73 75 77 79 79 78 77 76 74 75 76 76 77
57 57 50 62 52 47 48 41 49 41 36 33 28 30 32 33 35 34 35 32 36 38 35 47 50 65 72 70 72 70 69 72 74 76 78 78 76 76 75 76 75 77 78
59 64 60 52 54 49 49 54 46 54 39 39 36 31 32 35 38 35 32 30 36 34 37 37 39 37 53 72 73 73 70 68 70 71 75 76 77 76 76 77 78 78 78
59 56 58 52 56 56 57 56 58 39 37 38 34 32 37 37 32 30 33 33 36 31 33 39 40 46 42 35 52 72 73 73 71 74 76 76 77 78 79 78 75 70 68
57 59 58 55 57 53 46 56 56 53 38 41 47 46 42 57 37 34 41 34 40 34 34 39 39 41 46 40 55 59 71 75 71 70 73 75 77 78 77 73 65 62 60
55 56 64 59 62 66 59 54 50 46 51 42 39 36 46 47 39 47 33 35 36 36 38 35 33 38 43 39 56 67 67 78 74 70 70 70 73 73 68 61 60 59 60
57 52 63 58 59 50 61 64 64 61 42 38 36 38 46 37 44 38 36 36 34 31 31 36 31 32 39 39 36 58 76 79 80 73 68 61 59 58 56 55 56 58 59
49 59 57 62 59 56 61 57 62 64 57 49 39 42 37 40 36 37 37 41 38 35 31 31 34 33 32 34 46 80 78 76 80 79 77 72 64 58 56 55 56 58 60
38 53 64 66 57 64 60 62 67 66 63 55 63 37 35 36 36 36 38 35 38 34 34 31 31 33 30 33 35 66 83 82 81 82 79 76 75 75 71 66 62 61 61
37 46 58 58 60 59 60 63 64 57 58 57 63 61 39 38 38 35 36 39 38 35 34 48 29 30 33 34 43 79 45 87 85 82 81 79 78 78 78 78 78 77 76
38 46 50 58 56 58 61 64 52 61 59 62 60 63 56 39 40 38 38 37 40 41 35 40 31 38 33 31 42 40 44 68 86 85 82 80 80 79 78 79 80 81 82
54 48 54 53 54 58 60 66 55 60 64 54 49 59 64 42 43 42 41 39 39 41 40 29 31 33 38 35 40 44 43 67 85 86 86 84 79 78 79 79 79 80 80
56 60 57 55 56 58 60 66 64 56 64 65 61 60 65 65 47 40 40 41 41 40 42 33 29 33 53 57 49 45 45 46 39 84 86 86 84 81 78 78 79 80 79
59 60 59 59 56 54 58 64 63 53 61 62 62 64 62 51 67 65 47 60 50 51 44 66 52 40 52 53 54 60 48 34 33 50 84 86 87 86 83 80 78 79 80
63 55 57 61 59 55 58 60 62 60 58 58 59 61 61 63 68 55 56 50 45 51 54 53 52 41 39 40 49 57 58 56 42 59 77 82 88 88 88 86 83 80 80
64 62 59 59 59 55 53 55 58 60 58 56 58 58 59 61 66 68 64 67 63 60 56 50 45 40 36 43 41 44 45 39 38 33 47 56 63 74 84 87 87 84 84
63 62 61 59 58 52 42 55 54 55 60 59 57 58 58 62 75 74 55 65 69 60 48 44 42 40 39 39 47 41 45 42 46 41 40 38 38 39 43 83 70 87 86
66 65 61 60 60 46 60 74 62 51 56 60 61 60 60 74 77 88 90 90 84 73 75 57 49 50 68 59 46 46 45 48 52 44 55 52 48 52 49 42 62 74 82
67 69 64 61 65 63 75 80 81 50 50 56 61 59 52 39 67 56 85 92 93 92 93 78 78 72 73 68 70 74 70 67 70 56 63 61 55 57 48 40 73 78 82
70 69 67 68 68 62 82 85 86 61 59 59 58 58 62 61 57 56 55 56 57 59 71 69 72 70 69 68 76 78 83 81 72 72 80 80 57 61 52 52 71 78 80
68 67 65 70 72 70 88 90 88 61 59 66 60 60 61 63 73 87 64 66 65 60 56 80 83 84 89 93 88 70 82 82 85 69 71 88 63 60 54 53 49 71 83
65 55 60 64 71 68 90 94 88 54 56 50 63 69 81 73 83 93 72 67 70 63 58 60 67 88 93 80 97 86 78 98 98 94 65 85 79 82 82 54 46 43 44